Notices

What's New in latest Release from April 7th, 2021:

- Updated Glossary, including Speed of Maximum Gust, and Total Hourly Precipitation

- Updated national and regional climate services offices contacts and prices information

- Addition of station inventory lists for 1981-2010, 1971-2000, and 1961-1990 Normals.

If you haven't already, please take our survey and provide feedback about our website: https://eccc.sondage-survey.ca/f/LanguageSelection.aspx?s=442ca660-fcf1-47c0-95a9-59707d6fd709

Hourly Data Report for November 21, 2020

CARBERRY CS
MANITOBA
Current Station Operator: ECCC - MSC

49°54'20.900" N
99°21'26.800" W
383.50 m
5010547
71170
WZE

Download Data

Hourly Data (November 2020)
Hourly Data Report for November 21, 2020
TIME
LST
Temp Definition
°C
Dew Point Definition
°C
Rel Hum Definition
%
Precip. Amount Definition
mm

Wind Dir Definition
10's deg

Wind Spd Definition
km/h
Visibility Definition
km
Stn Press Definition
kPa
Hmdx Definition


Wind Chill Definition


Weather Definition


00:00 -12.9 -14.8 85 0.0 20 11   98.26   -19 LegendNANA
01:00 -13.3 -15.1 86 0.0 19 11   98.22   -20 LegendNANA
02:00 -14.8 -16.3 88 0.0 18 10   98.17   -21 LegendNANA
03:00 -14.7 -16.3 87 0.0 19 9   98.11   -20 LegendNANA
04:00 -15.1 -16.4 89 0.0 19 9   98.01   -21 LegendNANA
05:00 -14.4 -15.9 88 0.0 19 8   97.95   -20 LegendNANA
06:00 -15.5 -17.2 87 0.0 20 3   97.90   -18 LegendNANA
07:00 -16.1 -17.7 87 0.0 24 3   97.87   -18 LegendNANA
08:00 -14.5 -16.1 88 0.0 19 8   97.83   -20 LegendNANA
09:00 -12.1 -13.5 89 0.0 21 8   97.83   -17 LegendNANA
10:00 -10.1 -11.8 87 0.0 21 9   97.75   -15 LegendNANA
11:00 -7.9 -10.3 83 0.0 23 6   97.73   -11 LegendNANA
12:00 -4.9 -7.7 81 0.0 26 10   97.68   -9 LegendNANA
13:00 -3.6 -6.8 78 0.0 27 15   97.62   -9 LegendNANA
14:00 -2.2 -6.0 75 0.0 26 10   97.57   -6 LegendNANA
15:00 -1.9 -5.6 76 0.0 26 9   97.56   -5 LegendNANA
16:00 -2.2 -5.8 77 0.0 23 7   97.54   -5 LegendNANA
17:00 -3.2 -6.0 81 0.0 24 7   97.56   -6 LegendNANA
18:00 -7.0 -8.5 89 0.0 27 10   97.56   -12 LegendNANA
19:00 -6.1 -7.6 89 0.0 25 10   97.54   -11 LegendNANA
20:00 -6.4 -8.2 87 0.0 25 10   97.54   -11 LegendNANA
21:00 -7.7 -9.3 88 0.0 26 11   97.52   -13 LegendNANA
22:00 -9.2 -10.4 90 0.0 24 8   97.55   -14 LegendNANA
23:00 -8.4 -8.8 97 0.0 23 12   97.53   -14 LegendNANA

Notes on Data Quality.

Legend

  • E = Estimated
  • M = Missing
  • NA = Not Available*
  • [empty] = Indicates an unobserved value
Date modified: